This demonstration page uses our WeatherBlox Daily Observations layout. Learn more.

Left ArrowRight Arrow

39.01783, -85.05884

Hourly Observations for June 3, 2018

Temp ( °F °C ) Dew Point ( °F °C ) Humidity (%) Winds ( mph kmh ) Pressure ( in mb ) Visibility ( mi km ) Precip ( " mm )
12:52 am 00:52 Clear 72 22.2 66 18.9 82 82 N N/A 29.83 1010 10 16 N/A
1:52 am 01:52 Clear 69 20.6 66 18.9 90 90 SW 3 6 29.82 1010 10 16 N/A
2:52 am 02:52 Partly Cloudy 68 20 65 18.3 90 90 N N/A 29.82 1010 10 16 N/A
3:52 am 03:52 Mostly Clear 68 20 66 18.9 93 93 N N/A 29.80 1009 10 16 N/A
4:52 am 04:52 Mostly Clear 69 20.6 66 18.9 90 90 SSW 3 6 29.79 1009 7 11 N/A
5:52 am 05:52 Mostly Cloudy 70 21.1 66 18.9 87 87 WSW 5 7 29.78 1009 10 16 N/A
6:52 am 06:52 Cloudy 71 21.7 66 18.9 84 84 WSW 5 7 29.79 1009 10 16 N/A
7:52 am 07:52 Mostly Cloudy 72 22.2 67 19.4 84 84 WSW 7 11 29.80 1009 10 16 N/A
8:52 am 08:52 Cloudy 72 22.2 67 19.4 84 84 W 10 17 29.81 1010 10 16 N/A
9:52 am 09:52 Mostly Cloudy 76 24.4 68 20 77 77 WNW 14 22 29.82 1010 10 16 N/A
10:52 am 10:52 Mostly Cloudy 79 26.1 67 19.4 67 67 NW 13 20 29.84 1010 10 16 N/A
11:52 am 11:52 Mostly Cloudy 79 26.1 64 17.8 60 60 WNW 14 22 29.84 1011 10 16 N/A
12:52 pm 12:52 Mostly Cloudy 81 27.2 64 17.8 57 57 WNW 18 30 29.86 1011 10 16 N/A
1:52 pm 13:52 Partly Cloudy 81 27.2 59 15 47 47 WNW 17 28 29.85 1011 10 16 N/A
2:52 pm 14:52 Partly Cloudy 81 27.2 55 12.8 41 41 W 15 24 29.85 1011 10 16 N/A
3:52 pm 15:52 Mostly Sunny 81 27.2 52 11.1 37 37 WNW 21 33 29.85 1011 10 16 N/A
4:52 pm 16:52 Mostly Sunny 81 27.2 49 9.4 33 33 WNW 16 26 29.85 1011 10 16 N/A
5:52 pm 17:52 Sunny 80 26.7 48 8.9 33 33 WNW 18 30 29.85 1011 10 16 N/A
6:52 pm 18:52 Sunny 79 26.1 49 9.4 35 35 WNW 21 33 29.86 1011 10 16 N/A
7:52 pm 19:52 Sunny 77 25 47 8.3 35 35 WNW 13 20 29.87 1012 10 16 N/A
8:52 pm 20:52 Sunny 72 22.2 48 8.9 43 43 WSW 6 9 29.88 1012 10 16 N/A
9:52 pm 21:52 Clear 69 20.6 50 10 51 51 SSW 6 9 29.88 1012 10 16 N/A
10:52 pm 22:52 Clear 67 19.4 51 10.6 57 57 SW 7 11 29.88 1012 10 16 N/A
11:52 pm 23:52 Clear 68 20 50 10 53 53 WSW 5 7 29.89 1012 10 16 N/A

Powered by AerisWeather